Location: Newark
(51.2625°N, 13.3939°E)
Time: 16:14:29
(UTC+00:00)

Transit 2A Rocket - Pass Details

Date: 24 November 2019
Orbit: 594 x 909 km, 66.7° (Epoch: 14 December)

Event Time Altitude Azimuth Distance (km) Brightness Sun altitude
Exits shadow 04:29:52 43° 257° (WSW) 863 4.8 -19.4°
Maximum altitude 04:30:16 45° 240° (WSW) 848 4.9 -19.3°
Drops below altitude 10° 04:34:36 10° 168° (SSE) 2,036 7.5 -18.7°
Sets 04:37:01 0° 162° (SSE) 2,986 8.5 -18.3°
